Dewpoint
42 43 43 43 43 43 43 43 43 43 43 43 44 44 45 45 46 45 43 46 44 42 39 39 36 36 33 29 28 30 27 27 26 26 27 18 19 18 19 19 27 24 24 23 22 21 18 23 24 21 31 31 30 29
42 42 42 41 42 42 43 43 43 43 43 43 43 44 45 45 46 45 41 45 48 42 40 43 39 39 37 31 30 32 27 29 33 34 29 26 24 27 19 21 25 25 31 28 28 26 30 28 34 34 33 32 31 30
41 41 41 41 41 42 42 41 42 43 44 43 44 44 45 45 46 46 43 44 43 39 39 35 33 35 35 35 37 29 30 27 27 32 33 27 23 22 25 20 26 26 30 35 30 30 28 32 32 31 31 31 29 28
41 41 41 45 46 46 46 43 41 42 43 44 44 44 44 45 46 45 43 45 43 39 35 34 34 32 32 35 35 34 32 32 35 34 30 29 26 23 21 21 26 32 27 29 29 29 30 30 31 31 30 31 28 26
41 41 46 47 48 48 47 46 44 43 44 44 44 45 45 46 45 45 45 47 45 38 33 32 33 31 31 32 32 33 35 35 30 32 36 27 20 20 20 19 32 25 26 30 28 35 34 31 34 32 32 29 28 25
40 45 47 46 47 47 47 47 46 44 44 44 44 45 46 45 45 43 38 46 45 36 35 31 32 30 30 30 31 30 32 31 29 26 24 25 26 27 27 15 12 16 20 26 26 31 33 34 32 31 31 28 24 21
41 45 45 45 45 45 45 45 44 44 45 45 45 44 44 45 44 41 36 39 39 37 39 31 29 30 31 28 29 29 32 27 28 29 29 22 18 27 30 14 15 15 20 23 29 30 29 28 27 28 28 25 19 17
41 43 44 44 44 44 44 44 44 44 43 43 44 44 44 43 41 37 37 40 41 33 32 33 28 28 28 28 27 28 27 30 30 25 27 28 24 28 23 20 19 19 24 27 27 29 29 27 26 23 22 18 16 15
43 43 43 43 43 42 42 42 43 43 43 43 43 43 40 35 39 34 36 40 46 37 34 36 29 26 30 27 28 28 28 33 28 34 27 27 25 23 21 20 20 25 28 28 27 26 26 25 21 19 17 16 16 14
42 42 43 43 43 42 41 42 42 42 43 43 39 38 34 35 39 37 37 38 41 40 37 32 27 29 30 31 32 35 37 32 29 29 25 28 28 25 24 24 25 25 28 27 26 25 24 22 21 18 16 15 15 14
41 41 41 41 41 41 41 41 41 42 39 40 39 34 32 37 35 36 35 35 35 34 31 28 27 27 30 31 32 32 33 32 26 25 25 23 26 27 26 27 28 27 28 29 28 27 25 24 19 18 17 16 16 16
39 40 39 40 40 40 40 41 41 38 39 35 32 35 34 32 36 31 31 31 27 23 26 28 27 29 32 33 32 34 27 33 23 26 28 23 29 27 27 26 27 27 25 23 22 21 22 21 21 20 19 17 17 17
41 40 40 39 39 39 39 39 39 39 37 36 35 34 34 32 28 29 21 25 27 30 30 30 31 32 34 33 33 33 29 26 27 26 21 27 28 26 26 26 26 26 26 24 21 19 19 18 19 19 18 18 19 18
39 40 40 40 40 40 40 39 39 37 37 36 35 24 31 28 28 31 28 29 34 32 31 32 34 32 34 32 33 27 27 26 23 21 20 29 26 26 26 27 25 22 24 25 20 19 18 17 17 19 18 18 18 18
40 39 38 40 40 40 40 40 40 37 34 33 30 23 24 28 31 33 38 35 34 34 33 33 32 32 31 30 28 25 25 21 21 22 32 31 29 28 28 26 23 22 23 24 24 21 19 19 18 18 19 19 18 16
39 37 37 39 40 40 39 39 37 38 36 31 31 28 30 31 32 34 36 36 37 37 35 32 32 32 30 28 26 23 20 19 27 34 34 30 29 29 28 27 27 26 27 25 22 21 20 18 19 19 18 17 16 16
37 35 39 39 39 39 39 40 36 35 32 32 30 34 33 32 32 32 35 36 39 37 33 31 30 25 28 25 21 23 31 33 34 35 35 31 30 31 29 28 26 27 26 25 24 22 21 21 19 19 18 17 20 17
33 35 40 39 38 38 38 38 34 29 27 29 28 30 31 33 33 33 35 37 39 33 31 27 30 23 27 21 27 33 31 34 33 33 32 33 31 30 29 28 27 26 25 24 23 23 21 19 19 18 19 18 18 18
36 36 39 39 36 34 34 34 31 26 29 30 31 32 32 32 33 34 35 40 40 38 36 32 32 27 30 34 35 33 32 32 30 30 31 32 31 30 29 28 27 26 25 23 23 21 20 22 23 19 18 17 22 19
39 39 39 37 36 30 28 30 31 27 27 29 30 30 31 32 33 34 37 37 35 39 34 33 31 32 33 33 37 33 34 33 30 28 28 29 30 29 28 27 26 25 24 24 25 23 19 18 17 17 19 18 20 22
38 39 37 35 34 32 31 29 29 29 29 29 31 30 31 33 32 35 34 33 34 36 30 30 28 30 32 33 35 33 34 32 32 30 28 27 29 28 28 29 26 24 23 22 22 21 21 21 20 19 21 23 21 20
39 38 38 33 30 29 28 30 28 29 29 29 29 30 31 31 31 31 28 34 33 29 31 32 30 28 28 29 31 34 34 34 34 32 30 29 28 27 28 27 25 25 25 25 23 22 22 21 21 21 22 21 16 19
38 35 33 30 29 28 28 31 27 26 26 27 26 25 28 29 29 25 30 30 30 29 30 28 29 31 28 27 28 30 33 29 30 31 29 29 29 29 28 27 27 26 25 24 24 24 23 19 19 22 19 19 21 21
34 32 30 28 26 25 27 25 23 24 26 24 22 21 25 27 25 26 25 30 31 29 28 26 27 26 26 26 26 26 29 31 30 30 31 30 28 28 26 27 27 26 24 23 23 24 22 22 19 19 20 19 18 18
29 26 30 24 27 25 24 24 22 22 21 22 21 23 25 26 25 22 23 29 30 31 30 27 28 28 28 27 28 27 29 30 28 28 29 28 27 26 26 25 24 24 25 25 24 23 22 23 21 22 19 19 17 16
22 25 24 25 26 23 22 21 22 21 22 22 23 25 28 26 20 18 17 32 33 31 29 28 27 25 26 27 26 25 27 29 28 25 28 29 26 26 25 24 23 22 23 26 24 22 21 20 20 19 18 14 8 12
21 23 23 23 21 23 26 26 22 24 21 21 23 24 24 18 17 21 28 29 30 31 30 28 26 25 26 28 29 29 28 28 29 25 26 25 26 26 27 24 21 23 24 25 24 23 21 19 19 18 18 18 16 15
24 24 21 25 25 24 24 24 24 22 24 23 24 22 20 18 20 30 30 30 30 28 28 27 29 28 28 27 28 27 27 28 27 26 25 24 25 27 26 26 25 22 24 24 23 23 22 20 19 18 17 16 16 14
23 25 25 23 24 26 26 26 25 25 24 26 28 23 25 29 30 30 28 29 30 30 27 26 27 30 28 27 27 26 25 25 22 19 18 18 19 22 24 23 23 23 22 20 18 20 19 20 19 18 16 17 15 15
23 27 24 23 22 23 25 25 27 26 25 28 28 23 24 27 26 28 28 27 27 28 29 28 26 25 24 23 23 24 25 26 26 23 20 21 21 23 23 22 22 21 21 19 17 16 16 16 16 15 14 13 13 13
24 25 25 25 24 24 24 25 25 24 26 26 26 28 28 28 26 26 26 27 28 28 27 27 26 25 25 24 24 22 22 27 25 24 27 27 25 23 22 23 23 22 21 19 17 15 14 14 15 14 12 11 6 5
24 23 24 22 22 22 23 24 24 25 24 25 25 25 25 25 25 23 21 23 24 24 24 25 26 25 28 28 28 27 23 25 23 22 25 23 24 23 23 22 21 21 20 19 17 16 14 14 15 13 11 8 6 4
22 23 22 23 22 22 22 23 22 22 23 23 24 24 23 23 23 20 20 20 21 21 21 26 27 28 28 27 28 27 25 23 21 21 22 22 21 21 21 20 20 19 17 17 16 14 13 12 11 8 7 4 3 1
Lifted_Index
4 4 3 3 3 2 2 2 2 2 3 3 3 3 3 3 3 3 3 3 2 1 1 1 1 2 3 3 4 4 5 5 4 4 4 4 4 4 3 3 3 3 3 3 3 3 3 3 2 2 2 2 2 3
4 4 4 3 3 2 2 2 3 3 3 3 3 3 3 3 3 4 4 3 2 2 1 2 2 3 3 4 4 4 5 5 4 4 4 4 3 3 3 3 3 3 3 3 3 3 3 3 2 2 2 2 3 3
5 5 4 2 2 1 1 2 3 3 3 3 3 3 3 3 4 4 4 3 3 2 2 3 3 4 4 4 4 4 5 5 4 4 3 3 3 2 2 2 3 3 4 3 3 3 3 3 2 2 2 3 3 4
5 4 3 1 -0 -1 -0 1 2 3 3 3 3 3 3 4 4 4 4 3 3 2 3 3 4 4 4 4 4 5 5 5 4 4 3 2 3 3 3 3 3 3 3 4 3 3 3 3 3 3 3 3 4 4
5 3 1 -0 -2 -2 -2 -0 1 2 3 4 4 4 4 4 4 4 4 3 3 3 3 4 5 5 5 5 5 5 5 5 4 4 3 3 3 4 4 4 3 3 4 4 4 4 4 4 4 4 3 3 4 4
4 3 1 -0 -1 -2 -2 -1 -0 2 3 4 4 4 4 4 4 4 4 4 4 4 4 5 5 6 6 6 6 5 5 4 4 4 4 4 4 4 4 4 4 4 4 4 4 4 4 4 5 4 4 4 4 5
5 4 2 1 -0 -1 -0 0 1 2 4 4 4 4 4 5 5 5 5 5 5 5 5 6 6 6 6 6 6 5 4 4 4 4 4 5 5 5 4 4 5 5 5 4 4 4 4 5 5 5 4 4 4 5
6 5 4 3 2 2 3 3 4 4 4 5 5 5 5 5 5 5 5 5 5 5 6 6 6 6 6 5 5 4 4 4 4 4 4 4 5 4 4 4 4 4 4 4 5 5 5 5 5 4 4 4 4 4
7 6 6 5 5 5 5 5 5 5 5 5 6 6 6 6 6 6 6 5 5 5 5 6 5 5 5 5 4 4 4 4 4 4 4 4 4 4 4 4 4 4 4 4 5 5 5 4 4 3 4 4 4 4
7 7 7 6 6 6 6 6 6 6 6 6 7 7 7 7 6 6 6 5 5 5 5 5 5 4 4 4 4 4 3 3 3 3 3 3 3 3 4 4 4 4 4 5 5 5 5 4 3 3 3 4 4 5
7 7 7 7 7 7 7 7 7 7 7 7 7 7 7 7 6 6 6 6 5 4 4 4 4 4 4 4 4 3 3 3 3 3 3 3 3 3 4 4 4 5 5 5 5 5 4 3 3 3 4 4 5 5
8 8 8 8 8 8 8 8 7 7 7 7 7 7 7 7 6 6 6 5 4 4 4 4 3 3 3 3 3 3 3 3 3 3 3 2 3 3 4 4 4 5 5 5 5 4 4 4 3 4 4 5 6 6
8 8 9 9 9 9 8 8 8 7 7 7 7 7 7 6 6 5 5 5 4 3 3 3 3 3 3 3 4 3 3 3 3 3 2 2 3 4 4 5 5 5 5 5 5 4 4 4 4 4 5 6 7 8
9 9 9 9 9 9 9 8 8 7 7 7 7 7 6 6 5 4 4 3 3 3 3 3 3 3 3 4 4 3 3 3 3 2 2 3 4 4 5 5 5 5 5 5 4 4 4 4 5 6 7 8 8 9
9 9 9 10 9 9 8 8 7 6 6 6 6 6 6 5 4 3 3 2 2 2 2 3 3 3 3 4 3 3 3 2 2 2 2 3 4 5 5 5 5 5 5 5 4 5 5 5 6 7 8 9 10 11
9 9 9 9 9 8 7 7 6 6 6 6 6 6 6 5 4 3 2 2 2 2 2 3 3 3 3 3 3 2 2 2 2 2 2 4 5 5 5 5 5 5 5 5 5 5 6 6 7 8 9 11 12 12
8 8 8 8 8 7 6 6 6 6 6 6 6 6 5 4 4 3 3 2 2 2 3 3 3 3 3 3 2 2 2 2 2 3 4 4 5 5 5 5 5 5 5 5 5 6 7 8 9 9 10 12 13 13
7 7 8 8 7 6 6 6 6 6 6 6 6 6 5 5 4 4 3 3 2 2 3 3 3 3 2 2 2 2 2 2 3 4 4 5 5 5 5 5 5 5 5 5 6 7 8 9 10 11 12 13 14 14
7 7 7 7 6 6 6 6 6 6 6 6 6 6 5 5 5 4 4 3 2 2 2 3 3 2 2 2 2 3 3 3 4 4 5 5 5 5 5 5 5 5 5 6 7 8 9 10 12 13 13 14 14 15
7 7 7 6 6 6 6 6 6 6 5 6 6 6 5 5 5 4 4 4 3 3 3 3 3 3 3 3 3 4 4 4 4 4 5 5 5 5 5 5 5 6 6 7 8 9 10 11 13 14 14 15 15 15
6 6 6 6 6 6 6 6 5 5 5 5 5 5 5 4 4 4 4 4 4 3 4 4 4 4 4 4 4 4 4 4 5 5 5 5 5 5 6 6 6 6 7 7 8 9 11 12 13 14 14 15 15 16
6 6 6 6 6 6 6 6 6 5 5 5 5 5 5 5 5 5 5 5 5 5 5 5 5 5 5 5 5 5 5 5 5 5 5 5 6 6 6 6 6 6 7 8 9 10 12 13 14 15 15 15 16 16
5 5 6 6 6 6 6 6 6 6 5 5 5 5 5 5 6 6 5 5 6 6 6 6 6 6 6 6 6 6 6 6 6 6 6 6 6 6 6 7 7 8 8 10 11 12 13 14 15 15 15 15 16 16
5 5 5 6 6 6 6 6 6 6 5 5 5 5 5 5 5 5 4 5 6 7 7 7 7 7 7 7 7 7 7 6 6 6 7 7 7 7 7 8 9 10 11 11 12 13 13 14 15 15 15 15 16 16
4 4 4 5 5 5 5 5 5 5 5 5 5 5 5 4 4 4 4 4 5 5 6 6 6 7 7 7 7 7 7 7 7 7 7 8 8 7 8 8 9 11 12 12 12 13 14 14 15 15 15 15 16 16
3 3 3 4 4 4 4 4 4 4 4 4 4 4 4 3 3 3 3 3 4 4 5 5 5 6 6 6 7 7 8 8 8 8 9 9 9 9 8 8 9 11 13 13 13 13 14 14 14 15 15 16 16 16
3 3 3 3 3 3 3 3 3 3 3 3 3 3 3 3 2 3 3 3 4 4 4 5 5 5 6 6 7 8 8 9 9 9 10 11 11 10 10 10 10 11 13 14 14 14 14 14 15 15 15 16 16 16
3 3 3 3 2 2 2 2 2 2 2 2 2 2 2 2 2 2 3 3 4 4 5 5 5 5 6 6 7 8 9 9 9 9 9 10 11 11 12 12 12 13 14 14 14 15 15 15 15 15 16 16 16 17
3 3 3 2 2 2 2 2 2 2 2 2 2 2 2 2 3 3 3 3 3 4 4 5 5 5 6 6 7 7 8 8 8 7 7 8 9 11 12 13 13 14 14 14 14 15 15 16 16 16 16 16 16 17
3 3 3 2 2 2 2 2 2 2 2 2 2 2 2 3 3 3 4 4 4 4 4 4 4 5 5 5 5 5 7 8 8 8 7 8 9 11 12 13 14 14 14 14 14 15 16 16 16 16 16 16 16 16
3 3 3 3 2 2 3 3 3 3 2 2 2 2 3 3 3 4 4 4 3 3 4 4 4 4 4 4 5 5 6 8 9 10 10 10 11 12 13 14 14 15 15 15 15 15 16 16 16 16 16 16 16 16
3 3 3 3 3 3 3 3 3 3 3 3 3 3 3 3 3 3 4 4 3 3 4 4 4 5 6 6 7 7 8 9 10 11 11 12 12 13 13 14 15 15 15 16 16 16 16 16 16 16 16 16 16 16
3 3 3 3 3 3 3 3 3 3 3 3 3 3 3 3 3 3 4 4 4 4 4 4 5 6 7 8 8 9 9 10 10 11 12 12 13 13 14 15 15 16 16 16 16 16 16 16 16 16 16 16 16 16